• Join FlightAware (Why Join?)
  • Login
  • US Flag GB Flag 
03:40 EDT


 

Airport Tracker/Info


-or-


 

Live Flight TrackerFlight Track Log ✈ KFS724 ✈ 26-Apr-2013 ✈ MMMY / MTY - KYIP

Flight Track Log - Related Links

Times and Time Zones

All times are in EDT time to prevent confusion due to time zone crossing. See the KFS724 flight status page for this flight to view local times or setup timezone preferences in your user account.

Time Position Orientation Groundspeed Altitude Reporting Facility
EDT Latitude Longitude Course Direction KTS MPH feet Rate Location/Type
14:40 25.8325 -99.8817 36° Northeast 284 327 9,500  Level Houston Center
14:41 25.9111 -99.8525 18° North 292 336 10,900 1,380 Climbing Houston Center
14:42 26.5112 -99.5232 35° Northeast  Level Estimated
14:42 26.0039 -99.8206 17° North 328 377 12,400  Level Houston Center
14:43 26.6133 -99.4411 36° Northeast  Level Estimated
14:43 26.0783 -99.7514 40° Northeast 340 391 14,400  Level Houston Center
14:44 26.7153 -99.3589 36° Northeast  Level Estimated
14:44 26.1317 -99.6536 59° Northeast 359 413 16,100  Level Houston Center
14:45 26.8172 -99.2766 36° Northeast  Level Estimated
14:45 26.2008 -99.5656 49° Northeast 371 427 17,500  Level Houston Center
14:46 26.2994 -99.4611 44° Northeast 396 456 19,800 1,680 Climbing Houston Center
14:47 26.3744 -99.3681 48° Northeast 401 461 21,100 960 Climbing Houston Center
14:48 26.4542 -99.2719 47° Northeast 409 471 21,900 1,020 Climbing Houston Center
14:49 26.5422 -99.1736 45° Northeast 429 494 23,300 1,380 Climbing Houston Center
14:50 26.6236 -99.0694 49° Northeast 442 509 24,800 1,200 Climbing Houston Center
14:51 26.7247 -98.9453 48° Northeast 450 518 25,800 840 Climbing Houston Center
14:52 26.8111 -98.8356 49° Northeast 466 536 26,600 720 Climbing Houston Center
14:53 26.8986 -98.7256 48° Northeast 473 544 27,300 720 Climbing Houston Center
14:54 26.9878 -98.6125 48° Northeast 482 555 28,200 720 Climbing Houston Center
14:55 27.0781 -98.5003 48° Northeast 488 562 28,900 660 Climbing Houston Center
14:56 27.1878 -98.3617 48° Northeast 496 571 29,600 720 Climbing Houston Center
14:57 27.2800 -98.2428 49° Northeast 504 580 30,400 840 Climbing Houston Center
14:58 27.3736 -98.1247 48° Northeast 507 583 31,400 960 Climbing Houston Center
14:59 27.4650 -98.0081 49° Northeast 502 578 32,400 780 Climbing Houston Center
15:00 27.5556 -97.8914 49° Northeast 497 572 33,100 660 Climbing Houston Center
15:01 27.6661 -97.7511 48° Northeast 500 575 33,800 540 Climbing Houston Center
15:02 27.7575 -97.6328 49° Northeast 501 577 34,300 480 Climbing Houston Center
15:04 27.8472 -97.5150 49° Northeast 496 571 34,800 240 Climbing Houston Center
15:05 27.9517 -97.3819 48° Northeast 499 574 34,900  Climbing Houston Center
15:06 28.0431 -97.2622 49° Northeast 504 580 34,900  Level Houston Center
15:07 28.1353 -97.1411 49° Northeast 508 585 34,900  Level Houston Center
15:08 28.2275 -97.0200 49° Northeast 508 585 34,900  Level Houston Center
15:09 28.3192 -96.8981 49° Northeast 510 587 34,900  Level Houston Center
15:10 28.4108 -96.7764 49° Northeast 509 586 34,900  Level Houston Center
15:11 28.5203 -96.6303 50° Northeast 509 586 34,900  Level Houston Center
15:12 28.6122 -96.5086 49° Northeast 509 586 34,900  Level Houston Center
15:13 28.7028 -96.3864 50° Northeast 508 585 34,900  Level Houston Center
15:14 28.8011 -96.2733 45° Northeast 503 579 34,900  Level Houston Center
15:15 28.9150 -96.1819 35° Northeast 503 579 34,900  Level Houston Center
15:16 29.0500 -96.0697 36° Northeast 503 579 34,900  Level Houston Center
15:17 29.1625 -95.9775 36° Northeast 504 580 35,000  Climbing Houston Center
15:18 29.2769 -95.8839 35° Northeast 504 580 35,000  Level Houston Center
15:19 29.3889 -95.7892 36° Northeast 501 577 35,000  Level Houston Center
15:20 29.5028 -95.6947 36° Northeast 502 578 35,000  Level Houston Center
15:21 29.6408 -95.5817 35° Northeast 505 581 35,000  Level Houston Center
15:22 29.7561 -95.4853 36° Northeast 507 583 35,000  Level Houston Center
15:23 29.8719 -95.3881 36° Northeast 508 585 35,000  Level Houston Center
15:24 29.9867 -95.2914 36° Northeast 506 582 35,000  Level Houston Center
15:25 30.1000 -95.1964 36° Northeast 502 578 35,000  Level Houston Center
15:26 30.2125 -95.1008 36° Northeast 500 575 35,000  Level Houston Center
15:27 30.3219 -95.0056 37° Northeast 492 566 35,000  Level Houston Center
15:28 30.4533 -94.8917 37° Northeast 496 571 35,000  Level Houston Center
15:29 30.5647 -94.7969 36° Northeast 492 566 35,000  Level Houston Center
15:30 30.6750 -94.7014 37° Northeast 493 567 35,000  Level Houston Center
15:31 30.7883 -94.6058 36° Northeast 499 574 35,000  Level Houston Center
15:33 30.9194 -94.4919 37° Northeast 494 568 35,000  Level Houston Center
15:33 30.9369 -94.4733 42° Northeast 497 572 35,000  Level Fort Worth Center
15:34 31.0494 -94.3778 36° Northeast 497 572 35,000  Level Fort Worth Center
15:35 31.1600 -94.2819 37° Northeast 497 572 35,000  Level Fort Worth Center
15:36 31.2722 -94.1858 36° Northeast 497 572 35,000  Level Fort Worth Center
15:37 31.3575 -94.1125 36° Northeast 492 566 35,000  Level Houston Center
15:38 31.4875 -93.9997 36° Northeast 488 562 35,000  Level Houston Center
15:39 31.5967 -93.9044 37° Northeast 489 563 35,000  Level Houston Center
15:40 31.7056 -93.8089 37° Northeast 489 563 35,000  Level Houston Center
15:41 31.8183 -93.7094 37° Northeast 488 562 35,000  Level Houston Center
15:42 31.9267 -93.6169 36° Northeast 489 563 35,000  Level Fort Worth Center
15:43 32.0342 -93.5219 37° Northeast 489 563 35,000  Level Fort Worth Center
15:44 32.1542 -93.4139 37° Northeast 489 563 35,000  Level Fort Worth Center
15:45 32.2511 -93.3161 40° Northeast 494 568 35,000  Level Fort Worth Center
15:46 32.3586 -93.2228 36° Northeast 494 568 35,000  Level Fort Worth Center
15:47 32.4681 -93.1242 37° Northeast 494 568 35,000  Level Fort Worth Center
15:48 32.5894 -93.0147 37° Northeast 500 575 35,000  Level Fort Worth Center
15:49 32.7008 -92.9156 37° Northeast 500 575 35,000  Level Fort Worth Center
15:50 32.8058 -92.8189 38° Northeast 494 568 35,000  Level Fort Worth Center
15:51 32.9169 -92.7192 37° Northeast 494 568 35,000  Level Fort Worth Center
15:52 33.0239 -92.6219 37° Northeast 489 563 35,000  Level Fort Worth Center
15:53 33.1328 -92.5242 37° Northeast 489 563 35,000  Level Fort Worth Center
15:55 33.3494 -92.3244 38° Northeast 479 551 35,000  Level Memphis Center
15:56 33.4575 -92.2247 38° Northeast 479 551 35,000  Level Memphis Center
15:57 33.5656 -92.1272 37° Northeast 479 551 35,000  Level Memphis Center
15:58 33.6733 -92.0269 38° Northeast 479 551 35,000  Level Memphis Center
15:59 33.7831 -91.9292 37° Northeast 485 558 35,000  Level Memphis Center
16:00 33.8864 -91.8311 38° Northeast 485 558 35,000  Level Memphis Center
16:01 33.9878 -91.7325 39° Northeast 474 545 35,000  Level Memphis Center
16:02 34.0911 -91.6314 39° Northeast 466 536 35,000  Level Memphis Center
16:03 34.1944 -91.5350 38° Northeast 466 536 35,000  Level Memphis Center
16:04 34.2997 -91.4333 39° Northeast 471 542 35,000  Level Memphis Center
16:05 34.4006 -91.3339 39° Northeast 463 533 35,000  Level Memphis Center
16:06 34.5078 -91.2367 37° Northeast 468 539 35,000  Level Memphis Center
16:07 34.5958 -91.1467 40° Northeast 468 539 35,000  Level Memphis Center
16:08 34.7008 -91.0517 37° Northeast 468 539 35,000  Level Memphis Center
16:09 34.8058 -90.9489 39° Northeast 468 539 35,000  Level Memphis Center
16:10 34.9106 -90.8483 38° Northeast 468 539 35,000  Level Memphis Center
16:11 35.0131 -90.7500 38° Northeast 468 539 35,000  Level Memphis Center
16:12 35.1258 -90.6389 39° Northeast 469 540 35,000  Level Memphis Center
16:13 35.2283 -90.5375 39° Northeast 469 540 35,000  Level Memphis Center
16:14 35.3347 -90.4333 39° Northeast 469 540 35,000  Level Memphis Center
16:15 35.4392 -90.3317 38° Northeast 469 540 35,000  Level Memphis Center
16:16 35.5414 -90.2294 39° Northeast 474 545 35,000  Level Memphis Center
16:17 35.6453 -90.1244 39° Northeast 474 545 35,000  Level Memphis Center
16:18 35.7433 -90.0272 39° Northeast 462 532 35,000  Level Memphis Center
16:19 35.8450 -89.9242 39° Northeast 462 532 35,000  Level Memphis Center
16:20 35.9469 -89.8161 41° Northeast 468 539 35,000  Level Memphis Center
16:21 36.0528 -89.7125 38° Northeast 474 545 35,000  Level Memphis Center
16:22 36.1583 -89.6064 39° Northeast 474 545 35,000  Level Memphis Center
16:23 36.2600 -89.5050 39° Northeast 474 545 35,000  Level Memphis Center
16:24 36.3633 -89.4008 39° Northeast 480 552 35,000  Level Memphis Center
16:25 36.4667 -89.2939 40° Northeast 499 574 35,000  Level Memphis Center
16:26 36.5761 -89.1839 39° Northeast 494 568 35,000  Level Memphis Center
16:27 36.6794 -89.0789 39° Northeast 494 568 35,000  Level Memphis Center
16:28 36.7844 -88.9683 40° Northeast 494 568 35,000  Level Memphis Center
16:29 36.8894 -88.8603 39° Northeast 494 568 35,000  Level Memphis Center
16:30 36.9986 -88.7492 39° Northeast 494 568 35,000  Level Memphis Center
16:31 37.1053 -88.6378 40° Northeast 494 568 35,000  Level Memphis Center
16:32 37.2142 -88.5258 39° Northeast 494 568 35,000  Level Memphis Center
16:33 37.3208 -88.4139 40° Northeast 494 568 35,000  Level Memphis Center
16:34 37.3986 -88.3242 42° Northeast 506 582 35,000  Level Indianapolis Center
16:35 37.5078 -88.2072 40° Northeast 510 587 35,000  Level Indianapolis Center
16:36 37.6178 -88.0911 40° Northeast 510 587 35,000  Level Indianapolis Center
16:37 37.7281 -87.9742 40° Northeast 511 588 35,000  Level Indianapolis Center
16:38 37.8575 -87.8353 40° Northeast 512 589 35,000  Level Indianapolis Center
16:39 37.9719 -87.7286 36° Northeast 506 582 35,000  Level Indianapolis Center
16:40 38.0947 -87.6394 30° Northeast 502 578 35,000  Level Indianapolis Center
16:41 38.2114 -87.5344 35° Northeast 514 592 35,000  Level Indianapolis Center
16:42 38.3172 -87.4094 43° Northeast 514 592 35,000  Level Indianapolis Center
16:43 38.4264 -87.2850 42° Northeast 515 593 35,000  Level Indianapolis Center
16:44 38.5419 -87.1756 37° Northeast 512 589 35,000  Level Indianapolis Center
16:45 38.6614 -87.0867 30° Northeast 496 571 35,000  Level Indianapolis Center
16:46 38.7806 -86.9911 32° Northeast 500 575 35,000  Level Indianapolis Center
16:47 38.8994 -86.8969 32° Northeast 499 574 35,000  Level Indianapolis Center
16:48 39.0425 -86.7831 32° Northeast 502 578 35,000  Level Indianapolis Center
16:49 39.1597 -86.6897 32° Northeast 500 575 35,000  Level Indianapolis Center
16:50 39.2794 -86.5933 32° Northeast 502 578 35,000  Level Indianapolis Center
16:51 39.4011 -86.4953 32° Northeast 508 585 35,000  Level Indianapolis Center
16:52 39.5219 -86.3975 32° Northeast 510 587 35,000 -300 Level Indianapolis Center
16:53 39.6417 -86.3006 32° Northeast 508 585 34,500 -720 Descending Indianapolis Center
16:54 39.7639 -86.2019 32° Northeast 509 586 33,600 -780 Descending Indianapolis Center
16:55 39.8925 -86.0964 32° Northeast 497 572 33,000 -300 Descending Indianapolis Center
16:56 40.0089 -86.0008 32° Northeast 493 567 33,000  Level Indianapolis Center
16:57 40.1442 -85.8883 32° Northeast 491 565 33,000  Level Indianapolis Center
16:58 40.2600 -85.7936 32° Northeast 490 564 33,000 -780 Level Indianapolis Center
16:59 40.3767 -85.6961 32° Northeast 494 568 31,400 -1,500 Descending Indianapolis Center
17:00 40.4925 -85.5997 32° Northeast 489 563 29,900 -1,800 Descending Indianapolis Center
17:02 40.6014 -85.5078 33° Northeast 466 536 27,700 -2,280 Descending Indianapolis Center
17:03 40.7092 -85.4169 33° Northeast 458 527 25,200 -1,980 Descending Indianapolis Center
17:04 40.8125 -85.3306 32° Northeast 438 504 23,700 -1,620 Descending Indianapolis Center
17:05 40.9258 -85.2331 33° Northeast 415 478 21,900 -1,380 Descending Indianapolis Center
17:06 41.0236 -85.1689 26° Northeast 408 470 20,900 -480 Descending Cleveland Center
17:07 41.1272 -85.1294 16° North 398 458 21,000  Climbing Cleveland Center
17:08 41.2267 -85.0950 15° North 387 445 21,000  Level Cleveland Center
17:08 41.2464 -85.0864 18° North 378 435 21,000  Level Chicago Center
17:09 41.3450 -85.0464 17° North 374 430 21,000 -60 Level Chicago Center
17:10 41.4444 -85.0078 16° North 375 432 20,900 -900 Descending Chicago Center
17:11 41.5431 -84.9719 15° North 372 428 19,200 -1,800 Descending Chicago Center
17:12 41.6292 -84.9369 17° North 375 432 17,900 -1,800 Descending Cleveland Center
17:13 41.7247 -84.8931 19° North 368 423 16,300 -1,800 Descending Cleveland Center
17:14 41.7728 -84.7739 62° Northeast 331 381 14,300 -1,680 Descending Cleveland Center
17:15 41.8108 -84.6481 68° East 340 391 13,000 -1,380 Descending Cleveland Center
17:16 41.8481 -84.5361 66° East 334 384 11,600 -1,380 Descending Cleveland Center
17:17 41.8831 -84.4239 67° East 334 384 10,300 -1,080 Descending Cleveland Center
17:17 41.8994 -84.3692 68° East 296 341 10,000 -300 Descending Cleveland Center
17:18 41.9158 -84.3197 66° East 314 361 10,000  Level Cleveland Center
17:18 41.9297 -84.2706 69° East 285 328 10,000  Level Cleveland Center
17:19 41.9414 -84.2347 66° East 294 338 10,000  Level Cleveland Center
17:19 41.9667 -84.1608 65° Northeast 295 339 10,000  Level Cleveland Center
17:20 41.9739 -84.1333 71° East 284 327 10,000 -300 Level Cleveland Center
17:20 42.0231 -84.0914 32° Northeast 269 310 9,700 -540 Descending Cleveland Center
17:21 42.0361 -84.0753 43° Northeast 271 312 9,500 -1,620 Descending Cleveland Center
17:21 42.0894 -84.0361 29° Northeast 264 304 8,100 -1,740 Descending Cleveland Center
17:22 42.1003 -84.0228 42° Northeast 260 299 7,800 -1,500 Descending Cleveland Center
17:22 42.1475 -83.9692 40° Northeast 280 322 6,600 -1,320 Descending Cleveland Center
17:23 42.1586 -83.9531 47° Northeast 265 305 6,500 -1,320 Descending Cleveland Center
17:23 42.2036 -83.9050 38° Northeast 257 296 5,300 -1,440 Descending Cleveland Center
17:24 42.2125 -83.8914 49° Northeast 265 305 5,100 -1,320 Descending Cleveland Center
17:24 42.2617 -83.8464 34° Northeast 266 306 4,000 -1,140 Descending Cleveland Center
17:25 42.3194 -83.7931 34° Northeast 254 292 3,200 -540 Descending Cleveland Center
17:26 42.3386 -83.7069 73° East 250 288 3,000 -420 Descending Cleveland Center
17:27 42.3322 -83.6281 96° East 228 262 2,500 -420 Descending Cleveland Center
17:28 42.3117 -83.5428 108° East 196 226 2,200 -300 Descending Cleveland Center
17:29 42.2964 -83.4886 111° Southeast 162 186 2,000 -540 Descending Cleveland Center
17:30 42.2606 -83.4983 191° South 149 171 1,200 -840 Descending Cleveland Center